Location: Cran-Gévrier
(45.9039°N, 6.1012°E)
Time: 13:41:07
(UTC+00:00)

Okean-O - Visible Passes

Search period start: 25 September 2023 00:00
Search period end: 05 October 2023 00:00
Orbit: 635 x 637 km, 98.1° (Epoch: 25 September)

Date Brightness Start Highest point End Pass type
(mag) Time Alt. Az. Time Alt. Az. Time Alt. Az.
25 Sep 3.5 18:59:51 28° E 19:00:31 30° ENE 19:04:22 10° N visible
25 Sep 4.4 20:37:22 29° W 20:37:22 29° W 20:40:47 10° NW visible
26 Sep 2.8 19:22:36 48° ENE 19:22:43 48° ENE 19:26:59 10° N visible
26 Sep 5.1 21:00:07 18° W 21:00:07 18° W 21:02:29 10° NW visible
27 Sep 4.7 18:08:27 10° ENE 18:09:20 11° ENE 18:10:14 10° NE visible
27 Sep 2.6 19:45:21 74° NNE 19:45:21 74° NNE 19:49:26 10° NNW visible
27 Sep 5.7 21:22:52 10° WNW 21:22:52 10° WNW 21:23:05 10° WNW visible
28 Sep 4.2 18:30:34 16° ENE 18:31:23 17° ENE 18:34:09 10° NNE visible
28 Sep 3.4 20:08:06 51° WNW 20:08:06 51° WNW 20:11:44 10° NNW visible
29 Sep 3.7 18:53:19 26° ENE 18:53:29 26° ENE 18:57:08 10° N visible
29 Sep 4.4 20:30:51 30° WNW 20:30:51 30° WNW 20:33:50 10° NNW visible
30 Sep 3.2 19:16:04 40° NE 19:16:04 40° NE 19:19:49 10° N visible
30 Sep 5.1 20:53:35 19° WNW 20:53:35 19° WNW 20:55:39 10° NW visible
01 Oct 3.0 19:38:48 52° NNE 19:38:48 52° NNE 19:42:19 10° N visible
01 Oct 5.7 21:16:19 11° WNW 21:16:19 11° WNW 21:16:50 10° WNW visible
02 Oct 4.4 18:24:01 14° ENE 18:24:21 14° ENE 18:26:43 10° NNE visible
02 Oct 3.6 20:01:32 44° NNW 20:01:32 44° NNW 20:04:39 10° NNW visible
03 Oct 4.0 18:46:45 22° ENE 18:46:45 22° ENE 18:49:50 10° NNE visible
03 Oct 4.5 20:24:17 29° NW 20:24:17 29° NW 20:26:48 10° NNW visible
04 Oct 3.6 19:09:30 31° NE 19:09:30 31° NE 19:12:35 10° N visible
04 Oct 5.2 20:47:01 19° WNW 20:47:01 19° WNW 20:48:43 10° NW visible
